Regional Weather Roundup
Issued by NWS Huntsville, AL

Current Version | Previous Version | Graphics & Text | Print | Product List | Glossary On
Versions: 1 2 3 4 5 6 7 8 9 10 11 12 13 14 15 16 17 18 19 20 21 22 23 24 25 26 27 28 29 30 31 32 33 34 35 36 37 38 39 40 41 42 43 44 45 46 47 48 49 50
000
ASUS44 KHUN 051610
RWRHUN

WEATHER ROUNDUP FOR THE TENNESSEE VALLEY
NATIONAL WEATHER SERVICE HUNTSVILLE AL
1100 AM CDT WED AUG 05 2020

ALZ001>004-051700-
NORTHWEST ALABAMA

CITY           SKY/WX    TMP DP  RH WIND       PRES   REMARKS
SHOALS AIRPORT PTSUNNY   84  68  58 VRB7      30.05S
$$

ALZ005>007-016-051700-
NORTH CENTRAL ALABAMA

CITY           SKY/WX    TMP DP  RH WIND       PRES   REMARKS
CULLMAN AG STN   N/A     81 N/A N/A CALM        N/A
DECATUR AP     SUNNY     82  69  64 VRB3      30.05R
HUNTSVILLE AP  SUNNY     82  68  62 CALM      30.04S
HUN NWS/UAH      N/A     81  69  66 N2          N/A
MERIDIANVILLE  SUNNY     80  69  68 CALM      30.06R
VINEMONT AP    FAIR      80  69  67 W3        30.07S
$$

ALZ008>010-051700-
NORTHEAST ALABAMA

CITY           SKY/WX    TMP DP  RH WIND       PRES   REMARKS
ALBERTVILLE    MOSUNNY  N/A N/A N/A CALM      30.05R
FORT PAYNE     PTSUNNY   82  69  66 E3        30.04R
SCOTTSBORO AP  CLOUDY    82  75  78 N3        30.05R
$$

TNZ076-096-097-051700-
SOUTHEASTERN MIDDLE TENNESSEE

CITY           SKY/WX    TMP DP  RH WIND       PRES   REMARKS
TULLAHOMA      SUNNY     79  68  69 CALM      30.06S
WINCHESTER     SUNNY     81  68  65 CALM      30.06R
$$

...SURROUNDING SITES...

CITY           SKY/WX    TMP DP  RH WIND       PRES   REMARKS
ATLANTA        MOSUNNY   88  69  53 SE9       30.05R HX  92
ANNISTON       MOSUNNY   89  71  55 VRB3      30.02S HX  95
BIRMINGHAM     MOSUNNY   86  70  58 VRB3      30.05R HX  90
CHATTANOOGA    MOSUNNY   83  69  62 CALM      30.05S
CORINTH        FAIR      81  64  57 N8        30.07R
DALTON         PTSUNNY   82  66  57 CALM      30.06S
GADSDEN        SUNNY     85  71  63 VRB5      30.04R HX  90
GOLDEN TRNGL   SUNNY     83  72  69 N7        30.04S
HALEYVILLE     PTSUNNY   80  69  69 W3        30.08R
JACKSON TN     MOSUNNY   78  61  55 NW7       30.10R
MEMPHIS        MOSUNNY   82  57  42 N12       30.09S
NASHVILLE      MOSUNNY   81  65  58 N3        30.09R
OXFORD MS      FAIR      79  63  57 NE7G14    30.09S
ROME           SUNNY     83  70  64 E5        30.03R
SAVANNAH       SUNNY     81  68  65 NE7       30.06R
SELMER         SUNNY     79  64  61 VRB3      30.08R
TUPELO         SUNNY     82  68  62 N6        30.05S
TUSCALOOSA     SUNNY     85  70  60 W6        30.01S
$$




USA.gov is the U.S. government's official web portal to all federal, state and local government web resources and services.